This is the latest recevied weather packets stored in our database for station/object HB9FHL-13. If no packets are shown the sender has not sent any weather packets the latest 10 day(s).
| Time | Temp. | Humidity | Pressure | Rain* | Wind** | Luminosity | Snow |
|---|---|---|---|---|---|---|---|
| 1788261939 | 20° C | - | 1024.2 hPa | 0 mm | - | - | - |
| 1788261637 | 19.44° C | - | 1026.2 hPa | 0 mm | - | - | - |
| 1788261359 | 20.56° C | - | 1027.4 hPa | 0 mm | - | - | - |
| 1788261080 | 20.56° C | - | 1025.6 hPa | 0 mm | - | - | - |
| 1788261036 | 20.56° C | - | 1025.6 hPa | 0 mm | - | - | - |
| 1788260735 | 20.56° C | - | 1023.4 hPa | 0 mm | - | - | - |
| 1788260432 | 20° C | - | 1025.3 hPa | 0 mm | - | - | - |
| 1788260131 | 19.44° C | - | 1027.4 hPa | 0 mm | - | - | - |
| 1788259831 | 19.44° C | - | 1025 hPa | 0 mm | - | - | - |
| 1788259550 | 20.56° C | - | 1021.3 hPa | 0 mm | - | - | - |
| 1788259228 | 19.44° C | - | 1024.1 hPa | 0 mm | - | - | - |
| 1788258928 | 18.89° C | - | 1023.3 hPa | 0 mm | - | - | - |
| 1788258639 | 18.33° C | - | 1025.3 hPa | 0 mm | - | - | - |
| 1788258325 | 18.89° C | - | 1026.7 hPa | 0 mm | - | - | - |
| 1788258020 | 19.44° C | - | 1023.6 hPa | 0 mm | - | - | - |
| 1788257415 | 18.89° C | - | 1026 hPa | 0 mm | - | - | - |
| 1788257114 | 18.89° C | - | 1026.3 hPa | 0 mm | - | - | - |
| 1788256814 | 17.78° C | - | 1026.6 hPa | 0 mm | - | - | - |
| 1788256513 | 18.33° C | - | 1026.5 hPa | 0 mm | - | - | - |
| 1788256211 | 18.33° C | - | 1026.5 hPa | 0 mm | - | - | - |
| 1788255642 | 18.33° C | - | 1025.9 hPa | 0 mm | - | - | - |
| 1788255607 | 18.33° C | - | 1025.9 hPa | 0 mm | - | - | - |
| 1788255002 | 18.89° C | - | 1025.9 hPa | 0 mm | - | - | - |
| 1788254408 | 18.89° C | - | 1025.1 hPa | 0 mm | - | - | - |
| 1788254100 | 18.33° C | - | 1023.7 hPa | 0 mm | - | - | - |
* Rain since midnight (hover to see other rain measurements)
** Current wind speed in m/s (hover to see current wind gust speed)